DELTA 1 DEB, 12533

Orbit data source: Space-Track

DELTA 1 DEB, 12533 is space debris in SSO originally from a launch on Thu, 29 Jul 1976 UTC launched from the Air Force Western Test Range (AFWTR). Debris objects in space refer to the collection of defunct objects orbiting the Earth. Examples of debris include non-operational satellites, rocket bodies, and fragments generated from explosions, collisions, or faulty payload assembly.

Loading next visibility...
Identifier
12533, 1976-077DN
Orbit
SSO
Country
Flag of USUS
Related business
Manufacturer
Unknown
Mission
Spacecraft
Bus & Motor
Unknown
Mass
Unknown
Launch date (UTC)
1976-07-29 (50 years ago)
Launch vehicle
Unknown
Launch site
Air Force Western Test Range (AFWTR)
Object type
Payload
Rocket body
Debris
Shape & HBR
Unknown shape, 0.2 m
Radar Cross Section
Medium (>0.1 m² and <1 m²)

Expand to show TLE details & history
Last TLE update: 2 days ago

TLE from 2 days ago
0 DELTA 1 DEB
1 12533U 76077DN  26171.37761615  .00000025  00000-0  47308-3 0  9996
2 12533 101.7417 137.4634 0051016 282.2889 233.0279 12.47414647156689
Epoch: 2026-06-20T09:03Z
TLE epoch observation values (Epoch: 2026-06-20T09:03:46.035Z)
Latitude
24.6135°
Longitude
-81.63431°
Altitude
1,502.232 km
Speed
7.104 km/s
True Right ascension
21h 31m 36s
True Declination
24° 29' 45"
Sunlit
Object was in daylight at epoch
Visualization orbit readout
Latitude
Unknown
Longitude
Unknown
Altitude
Unknown
Speed
Unknown
Apparent Right ascension
Unknown
Apparent Declination
Unknown
Sunlit
N/A
Visualization observer readout
Local Sidereal Time
02:18:48
Azimuth
Unknown
Elevation
Unknown
Doppler factor
Unknown
Orbital elements
Apogee altitude
1,512.93 km
Perigee altitude
1,432.824 km
Semi-major axis
7,851.014 km
Eccentricity
0.0051
Inclination
101.7417°
RAAN
137.4634°
Arg. of periapsis
282.2889°
True anomaly
232.56264°
Mean anomaly
233.0279°
Eccentric anomaly
232.79509°
Mean motion
3.12 °/min
Orbital period
115.38 mins
BSTAR
0.00047308
Loading maneuver chart data...
Computing Atmospheric mass density...
Loading historical data...
Loading historical data...
Loading historical data...
Loading historical data...
Loading historical data...
Loading historical data...
Loading historical data...

Documentation

Showing up to 5 results
|